Find Starlink 36156

NORAD ID: 67006 Int'l Des: 2025-293 Owner: SPXS Country: US Constellation: starlink operational
LEOCIRCULAR

Live Position

Loading 3D Globe...

About Starlink 36156

Description loading...

Upcoming Passes

Passes for default location (London). Set your location on the main map for personalized predictions.

Altitude History

Loading altitude history...

Two-Line Element Set

1 67006U 25293D 26107.14035951 .00002505 00000-0 21761-3 0 9996
2 67006 70.0031 357.6587 0002701 272.0854 87.9996 14.98336405 20644
Epoch: Apr 17, 2026 • Age: 14 hours

Current Status

Altitude 595.7 km
Velocity 7.56 km/s
Sub-Earth Point -70.02°S, 164.9°E
Launch Date Dec 10, 2025
Age 0.3 years
Type internet

Technical Details

Classification Payload
Mass 575.00 kg
Dry Mass 530.00 kg
Total Mass 575.00 kg
Length 0.30 m
Diameter 4.10 m
Span 29.00 m
Shape Box + pan
Manufacturer SPXS
Bus Type Starlink V2MO
Phase Status In Orbit
Owner/State SPXS/US

Most Searched